Date String (YYYY-MM-DD hh:mm:ss) UTC,Instrument flags,Ambient pressure (hPa),Sample flow (lpm),Bypass flow (lpm),Sample temperature (°C),Ambient temperature (°C),ASC tube jacket temperature (°C),LED temperature (°C),Box temperature (°C),Sample RH (%),Span deviation,Mass concentration (μg/m³),Mass concentration (μg/m³),Mass concentration (μg/m³)
DateTimeUTC,F1_M11,P_M11,Q1_M11,Q2_M11,T1_M11,T2_M11,T3_M11,T4_M11,T5_M11,U1_M11,ZSPAN_M11,X0_M11,X2_M11,X1_M11
2022-02-12 04:00:00,,0834.7,5.00,0.00,22.3,21.8,00.0,31.3,24.1,12.7,0000.0,0004.70,0001.32,0000.77
2022-02-12 04:01:00,,0834.7,4.99,0.00,22.3,21.7,00.0,31.3,24.1,12.8,0000.0,0005.25,0001.42,0000.78
2022-02-12 04:02:00,,0834.7,4.99,0.00,22.3,21.7,00.0,31.3,24.1,12.8,0000.0,0006.13,0001.55,0000.78
2022-02-12 04:03:00,,0834.7,5.01,0.00,22.3,21.6,00.0,31.3,24.0,12.8,0000.0,0007.78,0001.68,0000.79
2022-02-12 04:04:00,,0834.7,5.00,0.00,22.3,21.6,00.0,31.3,24.0,12.8,0000.0,0007.96,0001.70,0000.80
2022-02-12 04:05:00,,0834.7,4.99,0.00,22.3,21.5,00.0,31.3,24.0,12.8,0000.0,0008.38,0001.77,0000.81
2022-02-12 04:06:00,,0834.7,4.99,0.00,22.2,21.5,00.0,31.2,24.0,12.8,0000.0,0008.53,0001.80,0000.82
2022-02-12 04:07:00,,0834.8,5.00,0.00,22.2,21.5,00.0,31.2,23.9,12.9,0000.0,0008.79,0001.87,0000.83
2022-02-12 04:08:00,,0834.7,5.00,0.00,22.2,21.4,00.0,31.2,23.9,12.8,0000.0,0009.12,0002.01,0000.83
2022-02-12 04:09:00,,0834.8,5.02,0.00,22.2,21.4,00.0,31.2,23.9,12.9,0000.0,0009.63,0002.09,0000.82
2022-02-12 04:10:00,,0834.7,4.99,0.00,22.2,21.4,00.0,31.2,23.9,12.9,0000.0,0009.82,0002.17,0000.83
2022-02-12 04:11:00,,0834.7,4.99,0.00,22.2,21.4,00.0,31.2,23.9,12.9,0000.0,0010.54,0002.25,0000.84
2022-02-12 04:12:00,,0834.7,5.00,0.00,22.2,21.4,00.0,31.2,23.9,12.9,0000.0,0010.94,0002.30,0000.85
2022-02-12 04:13:00,,0834.8,5.01,0.00,22.1,21.4,00.0,31.2,23.9,12.9,0000.0,0010.64,0002.24,0000.85
2022-02-12 04:14:00,,0834.8,4.99,0.00,22.1,21.4,00.0,31.2,23.9,12.9,0000.0,0009.91,0002.28,0000.86
2022-02-12 04:15:00,,0834.8,4.99,0.00,22.1,21.4,00.0,31.2,23.9,12.9,0000.0,0009.69,0002.37,0000.87
2022-02-12 04:16:00,,0834.8,5.00,0.00,22.1,21.3,00.0,31.1,23.8,12.9,0000.0,0009.51,0002.40,0000.87
2022-02-12 04:17:00,,0834.9,5.01,0.00,22.1,21.3,00.0,31.1,23.8,12.9,0000.0,0009.62,0002.44,0000.86
2022-02-12 04:18:00,,0835.0,4.99,0.00,22.1,21.3,00.0,31.1,23.8,12.9,0000.0,0009.39,0002.44,0000.86
2022-02-12 04:19:00,,0835.0,5.01,0.00,22.1,21.3,00.0,31.1,23.8,12.9,0000.0,0008.57,0002.40,0000.85
2022-02-12 04:20:00,,0834.9,5.00,0.00,22.1,21.9,00.0,31.1,23.9,12.9,0000.0,0008.17,0002.44,0000.85
2022-02-12 04:21:00,,0835.0,5.01,0.00,22.2,22.7,00.0,31.2,24.2,12.9,0000.0,0008.56,0002.47,0000.85
2022-02-12 04:22:00,,0835.0,4.99,0.00,22.4,23.1,00.0,31.2,24.3,12.8,0000.0,0008.78,0002.42,0000.83
2022-02-12 04:23:00,,0835.0,5.01,0.00,22.4,22.9,00.0,31.2,24.4,12.7,0000.0,0008.27,0002.39,0000.82
2022-02-12 04:24:00,,0835.0,4.99,0.00,22.4,22.7,00.0,31.2,24.4,12.7,0000.0,0009.15,0002.49,0000.82
2022-02-12 04:25:00,,0835.0,5.00,0.00,22.4,22.5,00.0,31.3,24.3,12.7,0000.0,0009.48,0002.50,0000.82
2022-02-12 04:26:00,,0835.0,4.99,0.00,22.4,22.3,00.0,31.3,24.3,12.7,0000.0,0009.56,0002.48,0000.82
2022-02-12 04:27:00,,0835.0,5.00,0.00,22.4,22.2,00.0,31.3,24.3,12.7,0000.0,0009.68,0002.57,0000.84
2022-02-12 04:28:00,,0835.0,4.99,0.00,22.4,22.0,00.0,31.3,24.2,12.7,0000.0,0009.92,0002.67,0000.86
2022-02-12 04:29:00,,0835.0,5.01,0.00,22.4,21.9,00.0,31.3,24.2,12.7,0000.0,0010.96,0002.78,0000.87
2022-02-12 04:30:00,,0835.0,4.99,0.00,22.4,21.9,00.0,31.3,24.2,12.7,0000.0,0011.21,0002.81,0000.88
2022-02-12 04:31:00,,0835.0,4.99,0.00,22.4,21.8,00.0,31.3,24.2,12.7,0000.0,0011.35,0002.81,0000.89
2022-02-12 04:32:00,,0835.0,5.01,0.00,22.4,21.8,00.0,31.3,24.2,12.7,0000.0,0011.91,0002.86,0000.89
2022-02-12 04:33:00,,0835.0,5.00,0.00,22.4,21.7,00.0,31.3,24.1,12.7,0000.0,0011.66,0002.92,0000.90
2022-02-12 04:34:00,,0835.0,5.01,0.00,22.4,21.7,00.0,31.3,24.1,12.7,0000.0,0011.62,0002.88,0000.91
2022-02-12 04:35:00,,0835.0,4.99,0.00,22.4,21.7,00.0,31.3,24.1,12.8,0000.0,0010.86,0002.83,0000.92
2022-02-12 04:36:00,,0835.0,5.00,0.00,22.4,21.6,00.0,31.3,24.1,12.8,0000.0,0010.26,0002.74,0000.92
2022-02-12 04:37:00,,0834.9,5.01,0.00,22.3,21.6,00.0,31.3,24.1,12.8,0000.0,0010.29,0002.70,0000.92
2022-02-12 04:38:00,,0835.0,4.99,0.00,22.3,21.6,00.0,31.3,24.1,12.8,0000.0,0010.54,0002.58,0000.91
2022-02-12 04:39:00,,0835.0,5.02,0.00,22.3,21.5,00.0,31.3,24.0,12.8,0000.0,0010.15,0002.47,0000.90
2022-02-12 04:40:00,,0835.1,5.00,0.00,22.3,21.5,00.0,31.3,24.0,12.8,0000.0,0009.05,0002.35,0000.90
2022-02-12 04:41:00,,0835.0,4.99,0.00,22.3,21.5,00.0,31.3,24.0,12.8,0000.0,0009.08,0002.33,0000.91
2022-02-12 04:42:00,,0835.1,5.01,0.00,22.3,21.4,00.0,31.3,24.0,12.9,0000.0,0009.40,0002.27,0000.92
2022-02-12 04:43:00,,0835.1,4.99,0.00,22.2,21.4,00.0,31.2,24.0,12.9,0000.0,0008.65,0002.23,0000.93
2022-02-12 04:44:00,,0835.1,5.00,0.00,22.2,21.4,00.0,31.2,24.0,12.9,0000.0,0009.37,0002.10,0000.94
2022-02-12 04:45:00,,0835.1,4.99,0.00,22.2,21.4,00.0,31.2,24.0,12.9,0000.0,0010.04,0002.07,0000.94
2022-02-12 04:46:00,,0835.2,5.01,0.00,22.2,21.4,00.0,31.2,23.9,12.9,0000.0,0010.64,0002.03,0000.94
2022-02-12 04:47:00,,0835.2,4.99,0.00,22.2,21.4,00.0,31.2,23.9,12.9,0000.0,0010.83,0002.06,0000.95
2022-02-12 04:48:00,,0835.2,5.02,0.00,22.2,21.4,00.0,31.2,23.9,12.9,0000.0,0011.15,0002.05,0000.96
2022-02-12 04:49:00,,0835.2,4.99,0.00,22.2,21.4,00.0,31.2,23.9,12.9,0000.0,0010.76,0002.02,0000.96
2022-02-12 04:50:00,,0835.2,5.00,0.00,22.2,21.6,00.0,31.2,23.9,12.9,0000.0,0010.77,0002.03,0000.98
2022-02-12 04:51:00,,0835.2,5.00,0.00,22.3,22.4,00.0,31.2,24.1,12.9,0000.0,0010.78,0001.98,0000.98
2022-02-12 04:52:00,,0835.2,5.00,0.00,22.4,23.0,00.0,31.3,24.3,12.8,0000.0,0010.47,0001.89,0000.99
2022-02-12 04:53:00,,0835.2,5.00,0.00,22.5,23.0,00.0,31.3,24.4,12.7,0000.0,0010.24,0001.88,0000.99
2022-02-12 04:54:00,,0835.2,5.01,0.00,22.5,22.8,00.0,31.3,24.4,12.7,0000.0,0010.26,0001.83,0000.99
2022-02-12 04:55:00,,0835.2,5.00,0.00,22.5,22.6,00.0,31.3,24.4,12.7,0000.0,0008.99,0001.82,0000.98
2022-02-12 04:56:00,,0835.2,4.99,0.00,22.5,22.4,00.0,31.3,24.3,12.7,0000.0,0007.79,0001.80,0000.97
2022-02-12 04:57:00,,0835.2,5.00,0.00,22.5,22.2,00.0,31.3,24.2,12.7,0000.0,0006.72,0001.74,0000.96
2022-02-12 04:58:00,,0835.2,5.01,0.00,22.4,22.1,00.0,31.3,24.2,12.8,0000.0,0005.91,0001.62,0000.94
2022-02-12 04:59:00,,0835.1,5.00,0.00,22.4,22.0,00.0,31.3,24.1,12.8,0000.0,0005.69,0001.55,0000.92
